Regional Weather Roundup
Issued by NWS Northern Indiana

Home | Current Version | Previous Version | Graphics & Text | Print | Product List | Glossary On
Versions: 1 2 3 4 5 6 7 8 9 10 11 12 13 14 15 16 17 18 19 20 21 22 23 24 25 26 27 28 29 30 31 32 33 34 35 36 37 38 39 40 41 42 43 44 45 46 47 48 49 50
000
ASUS43 KIWX 230101
RWRIWX

KIWX WEATHER ROUNDUP
NATIONAL WEATHER SERVICE NORTHERN INDIANA
900 PM EDT SUN OCT 22 2017

NOTE: "FAIR" INDICATES FEW OR NO CLOUDS BELOW 12,000 FEET WITH NO
SIGNIFICANT WEATHER AND/OR OBSTRUCTIONS TO VISIBILITY.

* THESE STATIONS ARE NOT UNDER NWS QUALITY CONTROL. THEY ALSO MAY NOT
  REPORT WEATHER SUCH AS PRECIPITATION OR FOG.

INZ001>027-230200-
NORTHERN INDIANA

CITY           SKY/WX    TMP DP  RH WIND       PRES   REMARKS
GARY*          LGT RAIN  55  52  88 N14       30.05S
KNOX*          CLOUDY    55  54  94 N7        30.02R
SOUTH BEND     CLOUDY    59  59 100 NW7       30.02R
GOSHEN         CLOUDY    72  56  57 S13       29.99S
MONTICELLO*    CLOUDY    64  62  95 NW6       29.99S
FORT WAYNE     CLOUDY    70  54  56 S16       30.03S
PERU/GRISSOM   CLOUDY    71  57  61 S14       29.99S

$$
INZ028>050-230200-
CENTRAL INDIANA

CITY           SKY/WX    TMP DP  RH WIND       PRES   REMARKS
LAFAYETTE      CLOUDY    64  62  93 NW6       29.99R
KOKOMO*        CLOUDY    70  57  63 S14       30.02S
MUNCIE*        CLOUDY    70  53  54 S9        30.04S
INDIANAPOLIS   CLOUDY    70  56  61 SE13      30.01F

$$
MIZ043>046-050>051-056>058-064>065-071>073-077>080-230200-
SOUTHWEST LOWER MICHIGAN

CITY           SKY/WX    TMP DP  RH WIND       PRES   REMARKS
BATTLE CREEK   CLOUDY    72  58  61 S9        30.00R
BENTON HARBOR  CLOUDY    57  54  89 N8        30.01S
COLDWATER*     CLOUDY    71  53  53 S8G17     30.00F
HILLSDALE*     PTCLDY    68  52  56 S9        30.03S
HOLLAND        CLOUDY    58  55  90 N5        30.00S
GRAND RAPIDS   LGT RAIN  63  62  97 W7        29.98F
KALAMAZOO      CLOUDY    68  60  75 SW6       29.99S
STURGIS*       CLOUDY    71  58  63 S10       29.99S
THREE RIVERS*  CLOUDY    68  62  80 W6        30.00S

$$
OHZ001>008-015>018-024>025-230200-
NORTHWEST OHIO

CITY           SKY/WX    TMP DP  RH WIND       PRES   REMARKS
DEFIANCE       CLOUDY    70  52  52 S10       30.05S
FINDLAY        PTCLDY    64  47  53 S12       30.07S
TOLEDO EXPRESS PTCLDY    69  53  56 S7        30.05S
TOLEDO METCALF CLOUDY    67  51  56 S10       30.07S
LIMA           CLOUDY    66  48  52 S8        30.08S

$$
AND FOR LAKE MICHIGAN COASTAL AND OPEN LAKE BUOY OBSERVATIONS

STATION/POSITION TEMP    WIND        PRES    VSBY  WAVE
                 AIR SEA DIR/SP/G                  HT/PER
                 (F)     (DEG/KT/KT) (MB)    (MI)  (FT/S)
CALUMET HARBOR    53     350/ 13/ 17 1016.8F
MICHIGAN CITY     55     350/ 16/ 18   N/A
BURNS HARBOR      54     360/ 14/ 18 1017.6S
SAINT JOSEPH      58      10/ 12/ 15 1016.3
SOUTH LAKE BUOY   54 58   10/ 19/ 21 1016.5          5/ 5
4 MI NW BRIDGMAN  57 60   20/ 16/ 19 1016.8R         5/ 5
MICHIGAN CITY     55 58  360/ 14/ 17   N/A           7/ 6

$$
&&




USA.gov is the U.S. government's official web portal to all federal, state and local government web resources and services.